H1 CPF 2 NER 2025 8 10 9 222 01 glonass131 H2 1301901 9131 39155 2025 8 10 0 0 0 2025 8 13 23 45 0 900 1 1 0 0 0 1 H9 10 0 60897 0.00000 0 10668029.460 -21623503.951 8257241.367 10 0 60897 900.00000 0 10980818.139 -22405365.290 5163822.137 10 0 60897 1800.00000 0 11044547.455 -22871100.722 1969763.104 10 0 60897 2700.00000 0 10902105.422 -22983395.037 -1262708.920 10 0 60897 3600.00000 0 10603686.523 -22716464.855 -4470533.137 10 0 60897 4500.00000 0 10204439.539 -22057276.192 -7591062.593 10 0 60897 5400.00000 0 9761909.288 -21006240.154 -10563309.027 10 0 60897 6300.00000 0 9333382.726 -19577354.657 -13329158.139 10 0 60897 7200.00000 0 8973254.446 -17797784.192 -15834529.030 10 0 60897 8100.00000 0 8730526.029 -15706894.125 -18030452.784 10 0 60897 9000.00000 0 8646547.958 -13354779.820 -19874047.057 10 0 60897 9900.00000 0 8753102.110 -10800352.951 -21329365.955 10 0 60897 10800.00000 0 9070907.807 -8109066.452 -22368107.574 10 0 60897 11700.00000 0 9608615.703 -5350374.984 -22970165.002 10 0 60897 12600.00000 0 10362332.294 -2595038.880 -23124010.216 10 0 60897 13500.00000 0 11315694.660 87614.293 -22826904.191 10 0 60897 14400.00000 0 12440491.170 2632355.292 -22084930.387 10 0 60897 15300.00000 0 13697800.382 4980534.342 -20912852.555 10 0 60897 16200.00000 0 15039598.340 7082274.986 -19333801.464 10 0 60897 17100.00000 0 16410764.737 8898290.649 -17378798.521 10 0 60897 18000.00000 0 17751401.879 10401250.388 -15086127.442 10 0 60897 18900.00000 0 18999367.643 11576639.885 -12500567.924 10 0 60897 19800.00000 0 20092915.221 12423085.195 -9672507.682 10 0 60897 20700.00000 0 20973328.512 12952129.462 -6656951.347 10 0 60897 21600.00000 0 21587442.962 13187475.611 -3512446.312 10 0 60897 22500.00000 0 21889946.958 13163730.130 -299946.786 10 0 60897 23400.00000 0 21845368.646 12924703.371 2918361.834 10 0 60897 24300.00000 0 21429666.488 12521339.727 6080255.946 10 0 60897 25200.00000 0 20631358.639 12009365.753 9124661.848 10 0 60897 26100.00000 0 19452145.359 11446755.293 11992817.175 10 0 60897 27000.00000 0 17906999.566 10891117.552 14629384.838 10 0 60897 27900.00000 0 16023722.254 10397116.656 16983499.794 10 0 60897 28800.00000 0 13841981.153 10014029.458 19009730.350 10 0 60897 29700.00000 0 11411871.699 9783542.381 20668937.446 10 0 60897 30600.00000 0 8792058.463 9737878.154 21929017.115 10 0 60897 31500.00000 0 6047571.906 9898329.856 22765513.247 10 0 60897 32400.00000 0 3247349.127 10274263.252 23162089.821 10 0 60897 33300.00000 0 461617.536 10862629.549 23110853.899 10 0 60897 34200.00000 0 -2240773.015 11648010.179 22612522.869 10 0 60897 35100.00000 0 -4794961.671 12603193.740 21676431.740 10 0 60897 36000.00000 0 -7142525.399 13690263.520 20320378.770 10 0 60897 36900.00000 0 -9233664.838 14862153.013 18570310.277 10 0 60897 37800.00000 0 -11029036.871 16064607.195 16459848.252 10 0 60897 38700.00000 0 -12501157.356 17238469.967 14029667.285 10 0 60897 39600.00000 0 -13635314.487 18322203.731 11326730.337 10 0 60897 40500.00000 0 -14429953.175 19254536.357 8403395.990 10 0 60897 41400.00000 0 -14896512.625 19977124.253 5316412.768 10 0 60897 42300.00000 0 -15058722.302 20437118.414 2125819.156 10 0 60897 43200.00000 0 -14951384.645 20589523.296 -1106229.533 10 0 60897 44100.00000 0 -14618695.149 20399246.296 -4316683.990 10 0 60897 45000.00000 0 -14112170.841 19842748.136 -7442848.262 10 0 60897 45900.00000 0 -13488275.619 18909221.141 -10423625.382 10 0 60897 46800.00000 0 -12805844.557 17601242.580 -13200734.681 10 0 60897 47700.00000 0 -12123418.508 15934872.912 -15719874.508 10 0 60897 48600.00000 0 -11496604.437 13939192.934 -17931805.265 10 0 60897 49500.00000 0 -10975575.945 11655298.312 -19793329.501 10 0 60897 50400.00000 0 -10602822.193 9134793.645 -21268148.250 10 0 60897 51300.00000 0 -10411242.427 6437849.912 -22327575.812 10 0 60897 52200.00000 0 -10422667.895 3630907.876 -22951098.610 10 0 60897 53100.00000 0 -10646874.091 784125.105 -23126767.348 10 0 60897 54000.00000 0 -11081124.608 -2031325.227 -22851415.638 10 0 60897 54900.00000 0 -11710264.786 -4745989.781 -22130702.034 10 0 60897 55800.00000 0 -12507359.477 -7294789.953 -20978976.246 10 0 60897 56700.00000 0 -13434845.971 -9619485.611 -19418973.981 10 0 60897 57600.00000 0 -14446151.312 -11670845.885 -17481348.203 10 0 60897 58500.00000 0 -15487703.752 -13410438.228 -15204047.853 10 0 60897 59400.00000 0 -16501251.840 -14811963.645 -12631557.823 10 0 60897 60300.00000 0 -17426392.225 -15862085.483 -9814016.457 10 0 60897 61200.00000 0 -18203199.039 -16560720.647 -6806228.989 10 0 60897 62100.00000 0 -18774844.138 -16920784.694 -3666596.903 10 0 60897 63000.00000 0 -19090098.564 -16967404.936 -455984.483 10 0 60897 63900.00000 0 -19105611.060 -16736637.546 2763455.427 10 0 60897 64800.00000 0 -18787869.371 -16273744.852 5929474.065 10 0 60897 65700.00000 0 -18114763.548 -15631106.673 8980915.580 10 0 60897 66600.00000 0 -17076687.195 -14865854.031 11858880.219 10 0 60897 67500.00000 0 -15677131.764 -14037324.415 14507840.980 10 0 60897 68400.00000 0 -13932749.690 -13204444.428 16876694.019 10 0 60897 69300.00000 0 -11872883.769 -12423148.150 18919724.442 10 0 60897 70200.00000 0 -9538581.658 -11743937.637 20597470.851 10 0 60897 71100.00000 0 -6981134.941 -11209685.954 21877473.756 10 0 60897 72000.00000 0 -4260201.307 -10853773.157 22734894.892 10 0 60897 72900.00000 0 -1441584.986 -10698632.198 23152996.501 10 0 60897 73800.00000 0 1405235.609 -10754765.195 23123471.765 10 0 60897 74700.00000 0 4209733.694 -11020271.699 22646619.755 10 0 60897 75600.00000 0 6903007.522 -11480909.909 21731360.591 10 0 60897 76500.00000 0 9420393.007 -12110690.281 20395088.934 10 0 60897 77400.00000 0 11703908.938 -12872979.073 18663366.549 10 0 60897 78300.00000 0 13704434.143 -13722068.314 16569457.405 10 0 60897 79200.00000 0 15383526.138 -14605148.903 14153711.669 10 0 60897 80100.00000 0 16714804.677 -15464606.105 11462808.008 10 0 60897 81000.00000 0 17684841.093 -16240542.389 8548866.653 10 0 60897 81900.00000 0 18293514.440 -16873421.867 5468448.728 10 0 60897 82800.00000 0 18553817.636 -17306724.403 2281460.309 10 0 60897 83700.00000 0 18491120.109 -17489495.810 -950017.720 10 0 60897 84600.00000 0 18141916.817 -17378684.119 -4162950.688 10 0 60897 85500.00000 0 17552115.944 -16941160.117 -7294596.892 10 0 60898 0.00000 0 16774937.957 -16155333.547 -10283753.661 10 0 60898 900.00000 0 15868515.511 -15012292.815 -13071977.686 10 0 60898 1800.00000 0 14893298.625 -13516418.197 -15604749.343 10 0 60898 2700.00000 0 13909375.798 -11685438.896 -17832561.199 10 0 60898 3600.00000 0 12973827.908 -9549930.829 -19711903.294 10 0 60898 4500.00000 0 12138228.875 -7152275.197 -21206125.869 10 0 60898 5400.00000 0 11446400.808 -4545121.695 -22286161.338 10 0 60898 6300.00000 0 10932519.935 -1789421.519 -22931090.941 10 0 60898 7200.00000 0 10619653.916 1047886.185 -23128545.150 10 0 60898 8100.00000 0 10518792.052 3896436.312 -22874930.789 10 0 60898 9000.00000 0 10628408.256 6685139.909 -22175481.629 10 0 60898 9900.00000 0 10934573.476 9344912.665 -21044133.042 10 0 60898 10800.00000 0 11411610.560 11811315.639 -19503224.971 10 0 60898 11700.00000 0 12023261.456 14026998.476 -17583040.871 10 0 60898 12600.00000 0 12724315.007 15943844.402 -15321193.479 10 0 60898 13500.00000 0 13462624.385 17524729.470 -12761871.116 10 0 60898 14400.00000 0 14181427.304 18744825.300 -9954960.666 10 0 60898 15300.00000 0 14821869.885 19592393.994 -6955065.566 10 0 60898 16200.00000 0 15325627.182 20069045.427 -3820438.739 10 0 60898 17100.00000 0 15637510.045 20189449.565 -611851.679 10 0 60898 18000.00000 0 15707949.154 19980518.983 2608578.309 10 0 60898 18900.00000 0 15495252.844 19480098.474 5778580.323 10 0 60898 19800.00000 0 14967545.193 18735218.606 8836919.347 10 0 60898 20700.00000 0 14104304.414 17799987.504 11724561.101 10 0 60898 21600.00000 0 12897438.334 16733209.488 14385791.374 10 0 60898 22500.00000 0 11351852.750 15595829.730 16769270.023 10 0 60898 23400.00000 0 9485489.166 14448310.715 18829001.240 10 0 60898 24300.00000 0 7328829.858 13348048.588 20525203.332 10 0 60898 25200.00000 0 4923889.579 12346935.497 21825063.072 10 0 60898 26100.00000 0 2322733.862 11489167.999 22703361.529 10 0 60898 27000.00000 0 -414417.216 10809391.528 23142960.360 10 0 60898 27900.00000 0 -3221424.242 10331257.470 23135139.636 10 0 60898 28800.00000 0 -6028713.221 10066452.849 22679780.441 10 0 60898 29700.00000 0 -8765910.081 10014243.673 21785387.848 10 0 60898 30600.00000 0 -11364518.533 10161552.306 20468952.259 10 0 60898 31500.00000 0 -13760532.332 10483567.508 18755649.715 10 0 60898 32400.00000 0 -15896874.854 10944863.862 16678384.508 10 0 60898 33300.00000 0 -17725564.988 11500986.040 14277180.318 10 0 60898 34200.00000 0 -19209518.681 12100433.506 11598429.113 10 0 60898 35100.00000 0 -20323909.716 12686963.866 8694010.147 10 0 60898 36000.00000 0 -21057031.086 13202118.709 5620294.374 10 0 60898 36900.00000 0 -21410618.783 13587865.330 2437052.642 10 0 60898 37800.00000 0 -21399622.397 13789241.764 -793711.434 10 0 60898 38700.00000 0 -21051430.541 13756891.313 -4008980.617 10 0 60898 39600.00000 0 -20404582.642 13449376.651 -7145970.210 10 0 60898 40500.00000 0 -19507021.172 12835172.374 -10143375.033 10 0 60898 41400.00000 0 -18413958.636 11894248.308 -12942590.620 10 0 60898 42300.00000 0 -17185450.772 10619173.363 -15488882.320 10 0 60898 43200.00000 0 -15883780.439 9015690.507 -17732477.034 10 0 60898 44100.00000 0 -14570765.012 7102736.426 -19629554.166 10 0 60898 45000.00000 0 -13305103.417 4911903.721 -21143114.708 10 0 60898 45900.00000 0 -12139876.932 2486367.751 -22243710.354 10 0 60898 46800.00000 0 -11120310.795 -120676.572 -22910017.935 10 0 60898 47700.00000 0 -10281891.948 -2848001.636 -23129248.077 10 0 60898 48600.00000 0 -9648922.220 -5628673.228 -22897380.809 10 0 60898 49500.00000 0 -9233567.080 -8392617.324 -22219224.729 10 0 60898 50400.00000 0 -9035438.334 -11069319.204 -21108300.112 10 0 60898 51300.00000 0 -9041726.029 -13590541.494 -19586550.052 10 0 60898 52200.00000 0 -9227871.226 -15892947.655 -17683887.109 10 0 60898 53100.00000 0 -9558748.406 -17920522.008 -15437586.207 10 0 60898 54000.00000 0 -9990304.821 -19626686.732 -12891537.311 10 0 60898 54900.00000 0 -10471585.242 -20976029.527 -10095373.964 10 0 60898 55800.00000 0 -10947054.758 -21945572.412 -7103495.878 10 0 60898 56700.00000 0 -11359120.440 -22525531.718 -3974005.478 10 0 60898 57600.00000 0 -11650744.981 -22719540.673 -767579.532 10 0 60898 58500.00000 0 -11768042.285 -22544328.375 2453702.131 10 0 60898 59400.00000 0 -11662746.407 -22028871.328 5627548.453 10 0 60898 60300.00000 0 -11294451.068 -21213055.248 8692647.276 10 0 60898 61200.00000 0 -10632526.937 -20145904.584 11589831.892 10 0 60898 62100.00000 0 -9657637.495 -18883454.481 14263203.019 10 0 60898 63000.00000 0 -8362790.952 -17486353.960 16661186.374 10 0 60898 63900.00000 0 -6753884.733 -16017299.595 18737507.347 10 0 60898 64800.00000 0 -4849719.593 -14538405.293 20452065.962 10 0 60898 65700.00000 0 -2681481.859 -13108616.087 21771697.108 10 0 60898 66600.00000 0 -291713.637 -11781271.789 22670802.829 10 0 60898 67500.00000 0 2267188.672 -10601920.208 23131845.590 10 0 60898 68400.00000 0 4934888.170 -9606469.627 23145693.466 10 0 60898 69300.00000 0 7645357.480 -8819756.673 22711810.395 10 0 60898 70200.00000 0 10329375.011 -8254589.172 21838286.953 10 0 60898 71100.00000 0 12917167.041 -7911304.498 20541709.537 10 0 60898 72000.00000 0 15341088.500 -7777863.177 18846868.415 10 0 60898 72900.00000 0 17538232.900 -7830475.586 16786307.827 10 0 60898 73800.00000 0 19452863.754 -8034737.590 14399724.225 10 0 60898 74700.00000 0 21038566.087 -8347229.490 11733221.750 10 0 60898 75600.00000 0 22260027.291 -8717512.804 8838437.117 10 0 60898 76500.00000 0 23094371.191 -9090441.913 5771549.116 10 0 60898 77400.00000 0 23531987.253 -9408693.409 2592190.934 10 0 60898 78300.00000 0 23576817.870 -9615405.690 -637713.861 10 0 60898 79200.00000 0 23246089.529 -9656815.660 -3855168.544 10 0 60898 80100.00000 0 22569497.526 -9484778.573 -6997348.664 10 0 60898 81000.00000 0 21587877.679 -9059061.373 -10002849.563 10 0 60898 81900.00000 0 20351420.951 -8349309.085 -12812909.407 10 0 60898 82800.00000 0 18917507.041 -7336597.699 -15372581.348 10 0 60898 83700.00000 0 17348249.877 -6014504.787 -17631829.533 10 0 60898 84600.00000 0 15707860.516 -4389650.076 -19546525.406 10 0 60898 85500.00000 0 14059940.977 -2481681.369 -21079323.091 10 0 60899 0.00000 0 12464825.358 -322705.574 -22200395.541 10 0 60899 900.00000 0 10977081.225 2043812.621 -22888017.079 10 0 60899 1800.00000 0 9643279.737 4564634.775 -23128979.641 10 0 60899 2700.00000 0 8500125.867 7178751.882 -22918837.294 10 0 60899 3600.00000 0 7573028.898 9819718.770 -22261973.833 10 0 60899 4500.00000 0 6875171.021 12418221.934 -21171494.339 10 0 60899 5400.00000 0 6407111.090 14904772.327 -19668944.489 10 0 60899 6300.00000 0 6156937.327 17212410.079 -17783864.940 10 0 60899 7200.00000 0 6100959.422 19279308.284 -15553191.355 10 0 60899 8100.00000 0 6204907.614 21051167.878 -13020513.503 10 0 60899 9000.00000 0 6425585.213 22483305.112 -10235209.365 10 0 60899 9900.00000 0 6712902.362 23542346.438 -7251472.375 10 0 60899 10800.00000 0 7012203.325 24207462.620 -4127251.629 10 0 60899 11700.00000 0 7266787.973 24471093.316 -923126.128 10 0 60899 12600.00000 0 7420520.692 24339134.733 2298864.939 10 0 60899 13500.00000 0 7420417.029 23830585.273 5476413.544 10 0 60899 14400.00000 0 7219099.909 22976666.219 8548133.524 10 0 60899 15300.00000 0 6777023.286 21819455.955 11454728.731 10 0 60899 16200.00000 0 6064371.044 20410095.675 14140117.613 10 0 60899 17100.00000 0 5062552.662 18806641.648 16552494.315 10 0 60899 18000.00000 0 3765233.747 17071653.006 18645307.738 10 0 60899 18900.00000 0 2178858.566 15269614.289 20378141.676 10 0 60899 19800.00000 0 322642.192 13464298.307 21717480.884 10 0 60899 20700.00000 0 -1771968.681 11716177.021 22637349.822 10 0 60899 21600.00000 0 -4062345.953 10079986.085 23119812.857 10 0 60899 22500.00000 0 -6496200.459 8602542.502 23155326.764 10 0 60899 23400.00000 0 -9013512.463 7320904.816 22742938.586 10 0 60899 24300.00000 0 -11548795.593 6260951.673 21890324.168 10 0 60899 25200.00000 0 -14033603.511 5436437.905 20613665.155 10 0 60899 26100.00000 0 -16399178.080 4848568.224 18937364.762 10 0 60899 27000.00000 0 -18579131.162 4486107.586 16893605.398 10 0 60899 27900.00000 0 -20512049.787 4326025.322 14521754.055 10 0 60899 28800.00000 0 -22143916.429 4334647.907 11867624.441 10 0 60899 29700.00000 0 -23430242.725 4469273.662 8982607.852 10 0 60899 30600.00000 0 -24337825.916 4680182.772 5922687.866 10 0 60899 31500.00000 0 -24846052.265 4912958.509 2747356.900 10 0 60899 32400.00000 0 -24947690.275 5111021.460 -481544.644 10 0 60899 33300.00000 0 -24649137.875 5218268.513 -3701043.595 10 0 60899 34200.00000 0 -23970110.980 5181702.939 -6848278.705 10 0 60899 35100.00000 0 -22942784.992 4953941.519 -9861748.672 10 0 60899 36000.00000 0 -21610424.581 4495489.377 -12682536.969 10 0 60899 36900.00000 0 -20025559.656 3776682.845 -15255487.033 10 0 60899 37800.00000 0 -18247785.281 2779214.915 -17530302.467 10 0 60899 38700.00000 0 -16341279.854 1497175.980 -19462548.620 10 0 60899 39600.00000 0 -14372148.077 -62436.276 -21014534.194 10 0 60899 40500.00000 0 -12405702.708 -1879760.767 -22156054.537 10 0 60899 41400.00000 0 -10503801.284 -3922669.445 -22864981.519 10 0 60899 42300.00000 0 -8722351.243 -6147891.070 -23127688.577 10 0 60899 43200.00000 0 -7109088.898 -8502614.381 -22939303.274 10 0 60899 44100.00000 0 -5701725.310 -10926502.333 -22303783.604 10 0 60899 45000.00000 0 -4526535.812 -13354031.694 -21233818.054 10 0 60899 45900.00000 0 -3597450.345 -15717058.866 -19750553.147 10 0 60899 46800.00000 0 -2915680.079 -17947503.743 -17883155.635 10 0 60899 47700.00000 0 -2469892.753 -19980038.942 -15668219.738 10 0 60899 48600.00000 0 -2236925.871 -21754672.221 -13149032.739 10 0 60899 49500.00000 0 -2183004.284 -23219115.013 -10374714.739 10 0 60899 50400.00000 0 -2265407.777 -24330839.554 -7399250.634 10 0 60899 51300.00000 0 -2434515.821 -25058740.653 -4280434.009 10 0 60899 52200.00000 0 -2636141.438 -25384335.078 -1078744.046 10 0 60899 53100.00000 0 -2814054.702 -25302450.969 2143822.639 10 0 60899 54000.00000 0 -2912589.223 -24821381.067 5324942.877 10 0 60899 54900.00000 0 -2879222.192 -23962495.582 8403158.244 10 0 60899 55800.00000 0 -2667020.272 -22759332.694 11319044.843 10 0 60899 56700.00000 0 -2236849.721 -21256205.764 14016340.492 10 0 60899 57600.00000 0 -1559259.178 -19506385.745 16443009.342 10 0 60899 58500.00000 0 -615957.203 -17569934.114 18552225.302 10 0 60899 59400.00000 0 599176.669 -15511275.457 20303257.311 10 0 60899 60300.00000 0 2079589.723 -13396608.941 21662241.221 10 0 60899 61200.00000 0 3806084.458 -11291264.160 22602824.956 10 0 60899 62100.00000 0 5747378.063 -9257108.959 23106675.626 10 0 60899 63000.00000 0 7861172.057 -7350114.679 23163839.342 10 0 60899 63900.00000 0 10095690.576 -5618178.162 22772946.666 10 0 60899 64800.00000 0 12391626.662 -4099289.732 21941258.920 10 0 60899 65700.00000 0 14684419.061 -2820122.710 20684552.994 10 0 60899 66600.00000 0 16906767.942 -1795103.332 19026844.838 10 0 60899 67500.00000 0 18991287.430 -1026000.654 16999954.587 10 0 60899 68400.00000 0 20873186.258 -502054.863 14642919.079 10 0 60899 69300.00000 0 22492865.472 -200640.311 12001260.601 10 0 60899 70200.00000 0 23798324.447 -88437.099 9126123.724 10 0 60899 71100.00000 0 24747273.359 -123063.398 6073295.152 10 0 60899 72000.00000 0 25308861.516 -255100.678 2902124.510 10 0 60899 72900.00000 0 25464946.499 -430426.565 -325633.312 10 0 60899 73800.00000 0 25210847.983 -592756.077 -3547031.337 10 0 60899 74700.00000 0 24555551.894 -686282.191 -6699174.335 10 0 60899 75600.00000 0 23521354.148 -658301.629 -9720467.279 10 0 60899 76500.00000 0 22142957.460 -461711.761 -12551841.858 10 0 60899 77400.00000 0 20466058.690 -57269.630 -15137934.608 10 0 60899 78300.00000 0 18545486.449 584485.755 -17428191.263 10 0 60899 79200.00000 0 16442968.410 1481732.171 -19377873.561 10 0 60899 80100.00000 0 14224623.910 2640349.882 -20948947.068 10 0 60899 81000.00000 0 11958289.183 4053438.831 -22110831.490 10 0 60899 81900.00000 0 9710789.497 5701388.647 -22840998.231 10 0 60899 82800.00000 0 7545274.330 7552498.686 -23125403.582 10 0 60899 83700.00000 0 5518728.351 9564121.481 -22958749.699 10 0 60899 84600.00000 0 3679762.752 11684280.594 -22344569.454 10 0 60899 85500.00000 0 2066778.817 13853693.588 -21295134.950 10 0 60900 0.00000 0 706579.133 16008113.788 -19831193.422 10 0 60900 900.00000 0 -386518.472 18080892.616 -17981536.663 10 0 60900 1800.00000 0 -1211028.494 20005651.510 -15782416.285 10 0 60900 2700.00000 0 -1778098.189 21718955.088 -13276815.340 10 0 60900 3600.00000 0 -2110771.101 23162871.105 -10513593.900 10 0 60900 4500.00000 0 -2242748.941 24287312.116 -7546525.790 10 0 60900 5400.00000 0 -2216706.909 25052062.194 -4433246.277 10 0 60900 6300.00000 0 -2082235.893 25428405.850 -1234131.684 10 0 60900 7200.00000 0 -1893499.937 25400293.236 1988867.114 10 0 60900 8100.00000 0 -1706708.577 24964995.237 5173415.018 10 0 60900 9000.00000 0 -1577510.613 24133223.211 8257984.520 10 0 60900 9900.00000 0 -1558418.476 22928710.183 11183027.038 10 0 60900 10800.00000 0 -1696370.477 21387272.200 13892102.651 10 0 60900 11700.00000 0 -2030532.101 19555389.528 16332948.193 10 0 60900 12600.00000 0 -2590427.335 17488366.558 18458465.027 10 0 60900 13500.00000 0 -3394477.381 15248146.044 20227609.408 10 0 60900 14400.00000 0 -4449007.463 12900866.847 21606170.181 10 0 60900 15300.00000 0 -5747763.499 10514264.519 22567420.311 10 0 60900 16200.00000 0 -7271959.854 8155020.195 23092630.877 10 0 60900 17100.00000 0 -8990858.080 5886165.307 23171438.151 10 0 60900 18000.00000 0 -10862855.068 3764647.602 22802056.597 10 0 60900 18900.00000 0 -12837038.381 1839157.703 21991332.899 10 0 60900 19800.00000 0 -14855147.341 148305.309 20754638.538 10 0 60900 20700.00000 0 -16853861.425 -1280779.507 19115600.998 10 0 60900 21600.00000 0 -18767323.464 -2433361.376 17105676.402 10 0 60900 22500.00000 0 -20529794.594 -3307491.989 14763569.194 10 0 60900 23400.00000 0 -22078331.311 -3913861.896 12134507.574 10 0 60900 24300.00000 0 -23355372.959 -4275116.399 9269386.375 10 0 60900 25200.00000 0 -24311130.430 -4424662.725 6223792.180 10 0 60900 26100.00000 0 -24905674.170 -4405017.510 3056928.445 10 0 60900 27000.00000 0 -25110631.303 -4265763.698 -169538.878 10 0 60900 27900.00000 0 -24910417.636 -4061203.364 -3392692.389 10 0 60900 28800.00000 0 -24302949.722 -3847806.748 -6549606.179 10 0 60900 29700.00000 0 -23299804.280 -3681567.383 -9578594.659 10 0 60900 30600.00000 0 -21925816.159 -3615377.837 -12420440.721 10 0 60900 31500.00000 0 -20218130.401 -3696540.238 -15019576.761 10 0 60900 32400.00000 0 -18224747.885 -3964520.149 -17325193.086 10 0 60900 33300.00000 0 -16002626.135 -4449041.868 -19292249.879 10 0 60900 34200.00000 0 -13615416.290 -5168608.315 -20882371.134 10 0 60900 35100.00000 0 -11130932.918 -6129510.001 -22064601.918 10 0 60900 36000.00000 0 -8618464.644 -7325366.119 -22816013.555 10 0 60900 36900.00000 0 -6146040.072 -8737217.514 -23122144.937 10 0 60900 37800.00000 0 -3777764.766 -10334167.260 -22977271.976 10 0 60900 38700.00000 0 -1571341.387 -12074540.984 -22384501.023 10 0 60900 39600.00000 0 424123.482 -13907516.775 -21355685.932 10 0 60900 40500.00000 0 2169935.214 -15775154.717 -19911172.108 10 0 60900 41400.00000 0 3639175.793 -17614739.355 -18079374.375 10 0 60900 42300.00000 0 4817562.906 -19361335.601 -15896198.771 10 0 60900 43200.00000 0 5703770.903 -20950450.114 -13404321.263 10 0 60900 44100.00000 0 6309203.871 -22320686.334 -10652338.989 10 0 60900 45000.00000 0 6657234.120 -23416282.270 -7693811.846 10 0 60900 45900.00000 0 6781941.556 -24189425.634 -4586214.013 10 0 60900 46800.00000 0 6726409.987 -24602250.858 -1389816.352 10 0 60900 47700.00000 0 6540654.323 -24628436.141 1833478.426 10 0 60900 48600.00000 0 6279267.429 -24254335.749 5021325.490 10 0 60900 49500.00000 0 5998886.326 -23479602.174 8112130.213 10 0 60900 50400.00000 0 5755584.236 -22317273.881 11046221.059 10 0 60900 51300.00000 0 5602297.375 -20793326.281 13766981.858 10 0 60900 52200.00000 0 5586393.429 -18945705.271 16221923.382 10 0 60900 53100.00000 0 5747482.399 -16822883.579 18363675.447 10 0 60900 54000.00000 0 6115560.310 -14481999.112 20150882.388 10 0 60900 54900.00000 0 6709562.623 -11986651.133 21548986.540 10 0 60900 55800.00000 0 7536387.505 -9404443.658 22530886.160 10 0 60900 56700.00000 0 8590430.169 -6804375.426 23077456.306 10 0 60900 57600.00000 0 9853648.979 -4254182.001 23177923.198 10 0 60900 58500.00000 0 11296162.521 -1817737.631 22830084.788 10 0 60900 59400.00000 0 12877355.409 447377.627 22040372.539 10 0 60900 60300.00000 0 14547449.784 2492046.207 20823751.803 10 0 60900 61200.00000 0 16249480.142 4277427.618 19203460.755 10 0 60900 62100.00000 0 17921592.059 5776344.006 17210590.534 10 0 60900 63000.00000 0 19499571.317 6974178.424 14883512.101 10 0 60900 63900.00000 0 20919499.308 7869247.142 12267158.330 10 0 60900 64800.00000 0 22120424.275 8472628.957 9412172.912 10 0 60900 65700.00000 0 23046936.046 8807457.043 6373940.705 10 0 60900 66600.00000 0 23651534.752 8907701.760 3211517.185 10 0 60900 67500.00000 0 23896691.747 8816494.706 -13522.638 10 0 60900 68400.00000 0 23756513.128 8584064.559 -3238293.118 10 0 60900 69300.00000 0 23217932.677 8265372.430 -6399839.948 10 0 60900 70200.00000 0 22281380.859 7917548.185 -9436389.305 10 0 60900 71100.00000 0 20960899.030 7597238.378 -12288577.588 10 0 60900 72000.00000 0 19283692.010 7357980.784 -14900635.264 10 0 60900 72900.00000 0 17289136.678 7247719.664 -17221499.312 10 0 60900 73800.00000 0 15027287.999 7306569.916 -19205830.314 10 0 60900 74700.00000 0 12556945.833 7564927.365 -20814912.517 10 0 60900 75600.00000 0 9943364.853 8042007.190 -22017418.022 10 0 60900 76500.00000 0 7255705.185 8744873.638 -22790019.594 10 0 60900 77400.00000 0 4564332.238 9668002.544 -23117840.050 10 0 60900 78300.00000 0 1938080.188 10793394.913 -22994730.103 10 0 60900 79200.00000 0 -558405.548 12091235.913 -22423370.304 10 0 60900 80100.00000 0 -2867135.516 13521070.115 -21415196.560 10 0 60900 81000.00000 0 -4938950.647 15033441.855 -19990152.431 10 0 60900 81900.00000 0 -6735314.604 16571930.006 -18176274.856 10 0 60900 82800.00000 0 -8229651.434 18075490.024 -16009123.268 10 0 60900 83700.00000 0 -9408175.689 19481003.644 -13531064.956 10 0 60900 84600.00000 0 -10270183.787 20725928.400 -10790432.136 10 0 60900 85500.00000 0 -10827798.165 21750935.552 -7840568.456 99